Location: Kumla
(59.1265°N, 15.1401°E)
Time: 23:40:06
(UTC+01:00)

Vanguard 1 - Pass Details

Date: 11 December 2023
Orbit: 653 x 3825 km, 34.3° (Epoch: 04 March)

Event Time Altitude Azimuth Distance (km) Brightness Sun altitude
Rises 19:53:37 0° 252° (WSW) 6,041 14.8 -35.0°
Reaches altitude 10° 19:57:54 10° 242° (WSW) 5,457 14.3 -35.5°
Maximum altitude 20:11:32 29° 191° (SSW) 5,033 13.5 -37.2°
Enters shadow 20:19:38 23° 163° (SSE) 5,722 13.6 -38.2°
